Regional Weather Roundup
Issued by NWS

Home | Current Version | Previous Version | Graphics & Text | Print | Product List | Glossary Off
Versions: 1 2 3 4 5 6 7 8 9 10 11 12 13 14 15 16 17 18 19 20 21 22 23 24 25 26 27 28 29 30 31 32 33 34 35 36 37 38 39 40 41 42 43 44 45 46 47 48 49 50

000
ASUS43 KIND 190609
RWRIN

WEATHER ROUNDUP FOR INDIANA
NATIONAL WEATHER SERVICE INDIANAPOLIS IN
200 AM EDT SAT APR 19 2014

NOTE: "FAIR" INDICATES FEW OR NO CLOUDS BELOW 12,000 FEET WITH NO
SIGNIFICANT WEATHER AND/OR OBSTRUCTIONS TO VISIBILITY.

* - STATION DOES NOT REPORT WEATHER SUCH AS PRECIPITATION OR FOG.

+ - STATION NOT QUALITY CONTROLLED BY THE NATIONAL WEATHER SERVICE.
    USE DATA WITH CAUTION...ESPECIALLY DEWPOINT AND RELATIVE
    HUMIDITY OBSERVATIONS.

INZ001>003-010>013-019-020-190700-
NORTHWEST INDIANA

CITY           SKY/WX    TMP DP  RH WIND       PRES   REMARKS
GARY /AIRPORT/ FAIR      39  30  70 NE7       30.37S
LA PORTE +     FAIR      35  25  66 NE7       30.35S WCI  29
6HR MIN TEMP:  34; 6HR MAX TEMP:  42;

MICHIGAN CITY+ FAIR      32  28  86 CALM      30.36S
MONTICELLO +   FAIR      34  31  89 N6        30.33F WCI  29
RENSSELAER +   FAIR      34  30  86 CALM      30.35F
VALPARAISO     FAIR      31  24  75 N3        30.35S
6HR MIN TEMP:  31; 6HR MAX TEMP:  42;


$$

LMZ046-743>745-190700-
SOUTHERN LAKE MICHIGAN

STATION/POSITION TIME  TEMP WIND        PRES
                       AIR  DIR/SP/G
                 (UTC) (F)  (DEG/KT/KT) (MB)
MICHIGAN CITY    0600   38   20/ 10/ 11   N/A

$$

INZ004-005-014>016-021>024-190700-
NORTH CENTRAL INDIANA

CITY           SKY/WX    TMP DP  RH WIND       PRES   REMARKS
GOSHEN         FAIR      37  26  64 N6        30.33S
6HR MIN TEMP:  37; 6HR MAX TEMP:  54;

LOGANSPORT +   FAIR      39  30  70 N9        30.33S
PERU/GRISSOM   FAIR      42  31  65 N9        30.30F
6HR MIN TEMP:  42; 6HR MAX TEMP:  59;

ROCHESTER +    FAIR      39  27  60 N3        30.34S
SOUTH BEND     FAIR      34  25  69 NE6       30.35S WCI  29
6HR MIN TEMP:  33; 6HR MAX TEMP:  45;

WARSAW +       FAIR      37  28  70 CALM      30.33S

$$

INZ006>009-017-018-025>027-190700-
NORTHEAST INDIANA

CITY           SKY/WX    TMP DP  RH WIND       PRES   REMARKS
ANGOLA *+      CLEAR     39  30  70 CALM      30.33S
AUBURN +       FAIR      41  32  70 N3        30.33S
FORT WAYNE     FAIR      41  34  76 N8        30.32S
6HR MIN TEMP:  41; 6HR MAX TEMP:  60;


$$

INZ028-029-035-036-043>045-051>053-190700-
WEST CENTRAL INDIANA

CITY           SKY/WX    TMP DP  RH WIND       PRES   REMARKS
GREENCASTLE +  FAIR      45  36  70 N8        30.29S
LAFAYETTE      FAIR      41  31  67 N8        30.32F
6HR MIN TEMP:  41; 6HR MAX TEMP:  59;

TERRE HAUTE    FAIR      47  37  68 NE6       30.29R
6HR MIN TEMP:  47; 6HR MAX TEMP:  66;


$$

INZ030>032-037>040-046>048-054>057-064-065-190700-
CENTRAL INDIANA

CITY           SKY/WX    TMP DP  RH WIND       PRES   REMARKS
CP ATTERBURY + FAIR      48  37  66 N5        30.28S
INDIANAPOLIS   FAIR      47  36  65 NE10      30.29R
6HR MIN TEMP:  47; 6HR MAX TEMP:  63;

-EAGLE CREEK   FAIR      46  35  65 N8        30.28S
6HR MIN TEMP:  46; 6HR MAX TEMP:  64;

KOKOMO *+      FAIR      41  30  65 NE7       30.31F
MARION +       FAIR      41  34  74 NE8       30.31S
MT COMFORT *+  FAIR      45  37  76 NE6       30.29S
SHELBYVILLE    FAIR      51  37  58 N8        30.27S
6HR MIN TEMP:  51; 6HR MAX TEMP:  68;

ZIONSVILLE +   FAIR      44  35  70 N8        30.30S
6HR MIN TEMP:  44; 6HR MAX TEMP:  64;


$$

INZ033-034-041-042-049-050-058-059-190700-
EAST CENTRAL INDIANA

CITY           SKY/WX    TMP DP  RH WIND       PRES   REMARKS
MUNCIE         FAIR      43  35  73 N7        30.30R
6HR MIN TEMP:  43; 6HR MAX TEMP:  62;


$$

INZ060-061-067>069-081>083-085>088-190700-
SOUTHWEST INDIANA

CITY           SKY/WX    TMP DP  RH WIND       PRES   REMARKS
EVANSVILLE     FAIR      59  42  53 N7        30.23S
6HR MIN TEMP:  59; 6HR MAX TEMP:  69;

HUNTINGBURG *+ FAIR      54  39  58 NE7       30.24R
6HR MIN TEMP:  52; 6HR MAX TEMP:  66;

WASHINGTON +   FAIR      51  44  76 CALM      30.25R
6HR MIN TEMP:  51; 6HR MAX TEMP:  65;


$$

INZ062-063-066-070>080-084-089>092-190700-
SOUTH CENTRAL AND SOUTHEAST INDIANA

CITY           SKY/WX    TMP DP  RH WIND       PRES   REMARKS
BLOOMINGTON    FAIR      50  36  58 N7        30.26S
6HR MIN TEMP:  50; 6HR MAX TEMP:  63;

SEYMOUR +      FAIR      52  28  40 N10       30.25

$$




USA.gov is the U.S. government's official web portal to all federal, state and local government web resources and services.